| time (UTC) | temp C | wind direction | speed KPH | gust KPH | rain 1hr cm | rain 24hr cm | rain mn cm | humidity % | barometer mb |
| 20260510071858 | 13 | 236 | 0.0 | 0.0 | 0.00 | 0.00 | 0.00 | 88 | 1011.4 |
| 20260510071355 | 13 | 230 | 1.6 | 1.6 | 0.00 | 0.00 | 0.00 | 89 | 1011.5 |
| 20260510070854 | 13 | 251 | 0.0 | 0.0 | 0.00 | 0.00 | 0.00 | 88 | 1011.6 |
| 20260510070350 | 13 | 237 | 0.0 | 0.0 | 0.00 | 0.00 | 0.00 | 89 | 1011.7 |
| 20260510065850 | 13 | 242 | 3.2 | 3.2 | 0.00 | 0.00 | 0.00 | 89 | 1011.6 |
| 20260510065347 | 13 | 250 | 0.0 | 0.0 | 0.00 | 0.00 | 0.00 | 90 | 1011.5 |
| 20260510064844 | 13 | 229 | 0.0 | 0.0 | 0.00 | 0.00 | 0.00 | 90 | 1011.6 |
| 20260510064342 | 13 | 247 | 0.0 | 0.0 | 0.00 | 0.00 | 0.00 | 89 | 1011.8 |
| 20260510063838 | 13 | 229 | 1.6 | 1.6 | 0.00 | 0.00 | 0.00 | 90 | 1011.9 |
| 20260510063334 | 13 | 234 | 0.0 | 0.0 | 0.00 | 0.00 | 0.00 | 88 | 1011.6 |
| 20260510062831 | 13 | 240 | 0.0 | 0.0 | 0.00 | 0.00 | 0.00 | 89 | 1011.4 |
| 20260510062326 | 13 | 233 | 0.0 | 0.0 | 0.00 | 0.00 | 0.00 | 88 | 1011.3 |
| 20260510061822 | 13 | 242 | 0.0 | 0.0 | 0.00 | 0.00 | 0.00 | 88 | 1011.7 |
| 20260510061319 | 13 | 239 | 0.0 | 0.0 | 0.00 | 0.00 | 0.00 | 88 | 1011.5 |
| 20260510060815 | 13 | 246 | 0.0 | 0.0 | 0.00 | 0.00 | 0.00 | 88 | 1011.7 |
| 20260510060313 | 13 | 249 | 0.0 | 0.0 | 0.00 | 0.00 | 0.00 | 88 | 1011.5 |
| 20260510055809 | 14 | 252 | 0.0 | 0.0 | 0.00 | 0.00 | 0.00 | 87 | 1011.7 |
| 20260510055308 | 14 | 258 | 0.0 | 0.0 | 0.00 | 0.00 | 0.00 | 86 | 1011.5 |
| 20260510054807 | 14 | 230 | 1.6 | 1.6 | 0.00 | 0.00 | 0.00 | 85 | 1011.7 |
| 20260510054303 | 15 | 241 | 0.0 | 0.0 | 0.00 | 0.00 | 0.00 | 85 | 1011.6 |
| 20260510053758 | 14 | 226 | 0.0 | 0.0 | 0.00 | 0.00 | 0.00 | 86 | 1011.8 |
| 20260510053254 | 15 | 244 | 0.0 | 0.0 | 0.00 | 0.00 | 0.00 | 84 | 1011.8 |
| 20260510052750 | 15 | 232 | 0.0 | 1.6 | 0.00 | 0.00 | 0.00 | 84 | 1012.0 |
| 20260510052246 | 14 | 237 | 0.0 | 1.6 | 0.00 | 0.00 | 0.00 | 85 | 1011.9 |
| 20260510051742 | 13 | 240 | 0.0 | 0.0 | 0.00 | 0.00 | 0.00 | 87 | 1011.8 |
| 20260510051239 | 14 | 236 | 1.6 | 3.2 | 0.00 | 0.00 | 0.00 | 86 | 1012.0 |
| 20260510050736 | 14 | 241 | 0.0 | 0.0 | 0.00 | 0.00 | 0.00 | 86 | 1012.1 |
| 20260510050233 | 13 | 234 | 0.0 | 0.0 | 0.00 | 0.00 | 0.00 | 87 | 1012.1 |
| 20260510045730 | 13 | 241 | 0.0 | 0.0 | 0.00 | 0.13 | 0.13 | 89 | 1011.9 |
| 20260510045226 | 13 | 242 | 0.0 | 0.0 | 0.00 | 0.13 | 0.13 | 90 | 1011.9 |
| 20260510044722 | 13 | 234 | 0.0 | 0.0 | 0.00 | 0.13 | 0.13 | 88 | 1011.8 |
| 20260510044221 | 13 | 221 | 1.6 | 3.2 | 0.00 | 0.13 | 0.13 | 90 | 1011.8 |
| 20260510043715 | 13 | 235 | 0.0 | 0.0 | 0.00 | 0.13 | 0.13 | 89 | 1011.9 |
| 20260510043213 | 13 | 246 | 0.0 | 0.0 | 0.00 | 0.13 | 0.13 | 88 | 1011.8 |
| 20260510042710 | 13 | 229 | 0.0 | 0.0 | 0.00 | 0.13 | 0.13 | 87 | 1011.7 |
| 20260510042206 | 14 | 242 | 0.0 | 0.0 | 0.00 | 0.13 | 0.13 | 86 | 1011.8 |
| 20260510041703 | 13 | 238 | 0.0 | 0.0 | 0.00 | 0.13 | 0.13 | 87 | 1011.6 |
| 20260510041200 | 13 | 237 | 0.0 | 1.6 | 0.00 | 0.13 | 0.13 | 87 | 1011.5 |
| 20260510040657 | 14 | 238 | 0.0 | 0.0 | 0.00 | 0.13 | 0.13 | 86 | 1011.4 |
| 20260510040154 | 13 | 240 | 1.6 | 3.2 | 0.00 | 0.13 | 0.13 | 84 | 1011.5 |
| 20260510035649 | 13 | 234 | 0.0 | 0.0 | 0.00 | 0.13 | 0.13 | 88 | 1011.4 |
| 20260510035145 | 13 | 234 | 0.0 | 0.0 | 0.00 | 0.13 | 0.13 | 87 | 1011.3 |
| 20260510034642 | 13 | 238 | 0.0 | 0.0 | 0.00 | 0.13 | 0.13 | 87 | 1011.5 |
| 20260510034139 | 13 | 257 | 0.0 | 0.0 | 0.00 | 0.13 | 0.13 | 86 | 1011.6 |
| 20260510033635 | 14 | 233 | 0.0 | 0.0 | 0.00 | 0.13 | 0.13 | 86 | 1011.4 |
| 20260510033133 | 14 | 250 | 0.0 | 0.0 | 0.00 | 0.13 | 0.13 | 86 | 1011.5 |
| 20260510032629 | 14 | 218 | 3.2 | 4.8 | 0.00 | 0.13 | 0.13 | 83 | 1011.0 |
| 20260510032124 | 13 | 237 | 0.0 | 0.0 | 0.00 | 0.13 | 0.13 | 85 | 1011.0 |
| 20260510031620 | 13 | 219 | 0.0 | 0.0 | 0.00 | 0.13 | 0.13 | 87 | 1011.0 |
| 20260510031117 | 13 | 320 | 0.0 | 0.0 | 0.00 | 0.13 | 0.13 | 90 | 1011.1 |
| 20260510030611 | 13 | 240 | 0.0 | 0.0 | 0.00 | 0.13 | 0.13 | 88 | 1011.1 |
| 20260510030109 | 13 | 318 | 0.0 | 0.0 | 0.00 | 0.13 | 0.13 | 88 | 1010.9 |
| 20260510025606 | 13 | 246 | 0.0 | 0.0 | 0.00 | 0.13 | 0.13 | 86 | 1011.1 |
| 20260510025104 | 14 | 251 | 0.0 | 0.0 | 0.00 | 0.13 | 0.13 | 85 | 1010.8 |
| 20260510024600 | 13 | 240 | 0.0 | 0.0 | 0.00 | 0.13 | 0.13 | 83 | 1010.8 |
| 20260510024056 | 13 | 252 | 0.0 | 0.0 | 0.00 | 0.13 | 0.13 | 87 | 1010.9 |
| 20260510023553 | 13 | 237 | 0.0 | 0.0 | 0.00 | 0.13 | 0.13 | 88 | 1010.9 |
| 20260510023050 | 13 | 246 | 0.0 | 0.0 | 0.00 | 0.13 | 0.13 | 90 | 1011.0 |
| 20260510022550 | 13 | 238 | 0.0 | 0.0 | 0.00 | 0.13 | 0.13 | 90 | 1010.9 |
| 20260510022044 | 13 | 246 | 0.0 | 0.0 | 0.00 | 0.13 | 0.13 | 90 | 1010.7 |
| 20260510021540 | 13 | 242 | 0.0 | 0.0 | 0.00 | 0.13 | 0.13 | 89 | 1010.8 |
| 20260510021038 | 13 | 235 | 0.0 | 0.0 | 0.00 | 0.13 | 0.13 | 88 | 1010.6 |
| 20260510020532 | 13 | 240 | 0.0 | 0.0 | 0.00 | 0.13 | 0.13 | 88 | 1010.6 |
| 20260510020028 | 13 | 253 | 0.0 | 0.0 | 0.00 | 0.13 | 0.13 | 87 | 1010.5 |
| 20260510015524 | 13 | 254 | 0.0 | 0.0 | 0.00 | 0.13 | 0.13 | 86 | 1010.4 |
| 20260510015020 | 13 | 237 | 0.0 | 0.0 | 0.00 | 0.13 | 0.13 | 86 | 1010.4 |
| 20260510014517 | 13 | 228 | 0.0 | 0.0 | 0.00 | 0.13 | 0.13 | 86 | 1010.3 |
| 20260510014014 | 13 | 237 | 0.0 | 0.0 | 0.00 | 0.13 | 0.13 | 87 | 1010.3 |
| 20260510013508 | 13 | 250 | 0.0 | 0.0 | 0.00 | 0.13 | 0.13 | 86 | 1010.3 |
| 20260510013005 | 14 | 240 | 0.0 | 0.0 | 0.00 | 0.13 | 0.13 | 86 | 1010.0 |
| 20260510012459 | 14 | 239 | 0.0 | 0.0 | 0.00 | 0.13 | 0.13 | 84 | 1010.0 |
| 20260510011954 | 14 | 244 | 0.0 | 0.0 | 0.00 | 0.13 | 0.13 | 84 | 1010.0 |
| 20260510011449 | 14 | 232 | 0.0 | 0.0 | 0.00 | 0.13 | 0.13 | 83 | 1010.0 |
| 20260510010945 | 15 | 246 | 0.0 | 0.0 | 0.00 | 0.13 | 0.13 | 82 | 1009.7 |
| 20260510010443 | 15 | 242 | 0.0 | 0.0 | 0.00 | 0.13 | 0.13 | 81 | 1009.8 |
| 20260510005940 | 15 | 236 | 0.0 | 0.0 | 0.00 | 0.13 | 0.13 | 80 | 1009.8 |
| 20260510005436 | 15 | 251 | 0.0 | 0.0 | 0.00 | 0.13 | 0.13 | 79 | 1009.6 |
| 20260510004933 | 16 | 246 | 0.0 | 0.0 | 0.00 | 0.13 | 0.13 | 77 | 1009.8 |
| 20260510004430 | 16 | 236 | 0.0 | 0.0 | 0.00 | 0.13 | 0.13 | 76 | 1009.7 |
| 20260510003928 | 16 | 251 | 0.0 | 0.0 | 0.00 | 0.13 | 0.13 | 75 | 1009.6 |
| 20260510003425 | 16 | 252 | 0.0 | 0.0 | 0.00 | 0.13 | 0.13 | 73 | 1009.6 |
| 20260510002924 | 17 | 249 | 0.0 | 0.0 | 0.00 | 0.13 | 0.13 | 72 | 1009.5 |
| 20260510002421 | 17 | 235 | 0.0 | 0.0 | 0.00 | 0.13 | 0.13 | 71 | 1009.4 |
| 20260510001918 | 17 | 235 | 0.0 | 0.0 | 0.00 | 0.13 | 0.13 | 71 | 1009.4 |
| 20260510001416 | 17 | 235 | 0.0 | 0.0 | 0.00 | 0.13 | 0.13 | 69 | 1009.4 |
| 20260510000913 | 18 | 246 | 0.0 | 0.0 | 0.00 | 0.13 | 0.13 | 68 | 1009.1 |
| 20260510000411 | 18 | 250 | 0.0 | 0.0 | 0.00 | 0.13 | 0.13 | 69 | 1009.1 |
| 20260509235905 | 18 | 233 | 0.0 | 0.0 | 0.00 | 0.13 | 0.13 | 69 | 1009.0 |
| 20260509235402 | 18 | 237 | 0.0 | 0.0 | 0.00 | 0.13 | 0.13 | 68 | 1009.1 |
| 20260509234858 | 18 | 218 | 3.2 | 3.2 | 0.00 | 0.13 | 0.13 | 64 | 1009.0 |
| 20260509234356 | 19 | 204 | 0.0 | 0.0 | 0.00 | 0.13 | 0.13 | 66 | 1009.0 |
| 20260509233854 | 19 | 234 | 4.8 | 4.8 | 0.00 | 0.13 | 0.13 | 65 | 1008.6 |
| 20260509233351 | 19 | 151 | 1.6 | 3.2 | 0.00 | 0.13 | 0.13 | 64 | 1008.8 |
| 20260509232846 | 19 | 252 | 0.0 | 0.0 | 0.00 | 0.13 | 0.13 | 65 | 1008.9 |
| 20260509232345 | 20 | 252 | 0.0 | 1.6 | 0.00 | 0.13 | 0.13 | 64 | 1008.9 |
| 20260509231840 | 20 | 241 | 0.0 | 0.0 | 0.00 | 0.13 | 0.13 | 63 | 1009.0 |
| 20260509231337 | 20 | 241 | 0.0 | 0.0 | 0.00 | 0.13 | 0.13 | 63 | 1008.8 |
| 20260509230835 | 20 | 240 | 0.0 | 1.6 | 0.00 | 0.13 | 0.13 | 62 | 1008.8 |
| 20260509230332 | 20 | 228 | 0.0 | 0.0 | 0.00 | 0.13 | 0.13 | 62 | 1009.0 |
| 20260509225827 | 20 | 239 | 1.6 | 1.6 | 0.00 | 0.13 | 0.13 | 62 | 1009.0 |
| 20260509225324 | 20 | 251 | 0.0 | 0.0 | 0.00 | 0.13 | 0.13 | 61 | 1009.1 |
| 20260509224820 | 20 | 244 | 0.0 | 0.0 | 0.00 | 0.13 | 0.13 | 60 | 1009.1 |
| 20260509224316 | 20 | 233 | 0.0 | 1.6 | 0.00 | 0.13 | 0.13 | 61 | 1008.9 |
| 20260509223813 | 20 | 258 | 3.2 | 4.8 | 0.00 | 0.13 | 0.13 | 60 | 1009.0 |
| 20260509223310 | 20 | 256 | 1.6 | 1.6 | 0.00 | 0.13 | 0.13 | 61 | 1009.3 |
| 20260509222807 | 20 | 252 | 1.6 | 3.2 | 0.00 | 0.13 | 0.13 | 60 | 1009.2 |
| 20260509222306 | 20 | 247 | 0.0 | 0.0 | 0.00 | 0.13 | 0.13 | 60 | 1009.2 |
| 20260509221758 | 20 | 267 | 0.0 | 0.0 | 0.00 | 0.13 | 0.13 | 61 | 1009.3 |
| 20260509221255 | 20 | 245 | 1.6 | 3.2 | 0.00 | 0.13 | 0.13 | 58 | 1009.2 |
| 20260509220751 | 20 | 306 | 0.0 | 1.6 | 0.00 | 0.13 | 0.13 | 59 | 1009.1 |
| 20260509220247 | 20 | 239 | 0.0 | 0.0 | 0.00 | 0.13 | 0.13 | 59 | 1009.3 |
| 20260509215742 | 20 | 199 | 0.0 | 0.0 | 0.00 | 0.13 | 0.13 | 58 | 1009.3 |
| 20260509215240 | 21 | 201 | 4.8 | 11.3 | 0.00 | 0.13 | 0.13 | 59 | 1009.3 |
| 20260509214736 | 21 | 197 | 4.8 | 4.8 | 0.00 | 0.13 | 0.13 | 59 | 1009.7 |
| 20260509214234 | 21 | 229 | 6.4 | 9.7 | 0.00 | 0.13 | 0.13 | 59 | 1009.1 |
| 20260509213731 | 20 | 228 | 1.6 | 1.6 | 0.00 | 0.13 | 0.13 | 62 | 1009.4 |
| 20260509213226 | 21 | 189 | 3.2 | 3.2 | 0.00 | 0.13 | 0.13 | 58 | 1009.5 |
| 20260509212724 | 21 | 261 | 4.8 | 8.0 | 0.00 | 0.13 | 0.13 | 60 | 1009.2 |
| 20260509212221 | 21 | 187 | 4.8 | 8.0 | 0.00 | 0.13 | 0.13 | 60 | 1009.2 |
| 20260509211717 | 21 | 221 | 4.8 | 8.0 | 0.00 | 0.13 | 0.13 | 58 | 1009.3 |
| 20260509211213 | 21 | 251 | 3.2 | 3.2 | 0.00 | 0.13 | 0.13 | 58 | 1009.3 |
| 20260509210710 | 21 | 213 | 3.2 | 3.2 | 0.00 | 0.13 | 0.13 | 58 | 1009.3 |
| 20260509210208 | 21 | 260 | 0.0 | 0.0 | 0.00 | 0.13 | 0.13 | 60 | 1009.4 |
| 20260509205707 | 21 | 203 | 3.2 | 3.2 | 0.00 | 0.13 | 0.13 | 59 | 1009.4 |
| 20260509205207 | 21 | 265 | 1.6 | 3.2 | 0.00 | 0.13 | 0.13 | 61 | 1009.5 |
| 20260509204703 | 21 | 260 | 4.8 | 8.0 | 0.00 | 0.13 | 0.13 | 60 | 1009.5 |
| 20260509204159 | 21 | 288 | 1.6 | 3.2 | 0.00 | 0.13 | 0.13 | 60 | 1009.4 |
| 20260509203655 | 20 | 266 | 1.6 | 1.6 | 0.00 | 0.13 | 0.13 | 62 | 1009.4 |
| 20260509203154 | 20 | 247 | 1.6 | 1.6 | 0.00 | 0.13 | 0.13 | 63 | 1009.5 |
| 20260509202649 | 20 | 242 | 3.2 | 3.2 | 0.00 | 0.13 | 0.13 | 61 | 1009.4 |
| 20260509202144 | 20 | 252 | 1.6 | 1.6 | 0.00 | 0.13 | 0.13 | 63 | 1009.6 |
| 20260509201640 | 20 | 249 | 1.6 | 1.6 | 0.00 | 0.13 | 0.13 | 64 | 1009.4 |
| 20260509201137 | 20 | 242 | 3.2 | 3.2 | 0.00 | 0.13 | 0.13 | 63 | 1009.6 |
| 20260509200633 | 20 | 227 | 3.2 | 3.2 | 0.00 | 0.13 | 0.13 | 60 | 1009.4 |
| 20260509200128 | 20 | 239 | 0.0 | 1.6 | 0.00 | 0.13 | 0.13 | 62 | 1009.4 |
| 20260509195624 | 20 | 234 | 1.6 | 3.2 | 0.00 | 0.13 | 0.13 | 62 | 1009.5 |
| 20260509195120 | 20 | 227 | 4.8 | 8.0 | 0.00 | 0.13 | 0.13 | 62 | 1009.9 |
| 20260509194619 | 20 | 239 | 4.8 | 4.8 | 0.00 | 0.13 | 0.13 | 63 | 1009.7 |
| 20260509194117 | 20 | 210 | 3.2 | 4.8 | 0.00 | 0.13 | 0.13 | 60 | 1009.8 |
| 20260509193612 | 21 | 266 | 3.2 | 3.2 | 0.00 | 0.13 | 0.13 | 60 | 1009.7 |
| 20260509193108 | 21 | 239 | 4.8 | 4.8 | 0.00 | 0.13 | 0.13 | 60 | 1009.7 |
| 20260509192606 | 20 | 295 | 1.6 | 1.6 | 0.00 | 0.13 | 0.13 | 61 | 1009.9 |
| 20260509192100 | 20 | 256 | 0.0 | 1.6 | 0.00 | 0.13 | 0.13 | 66 | 1009.4 |
| 20260509191555 | 19 | 252 | 3.2 | 3.2 | 0.00 | 0.13 | 0.13 | 65 | 1009.9 |
| 20260509191051 | 18 | 244 | 1.6 | 1.6 | 0.00 | 0.13 | 0.13 | 68 | 1009.9 |
| 20260509190548 | 18 | 279 | 1.6 | 3.2 | 0.00 | 0.13 | 0.13 | 68 | 1009.8 |
| 20260509190046 | 18 | 248 | 1.6 | 1.6 | 0.00 | 0.13 | 0.13 | 70 | 1010.0 |
| 20260509185543 | 18 | 236 | 0.0 | 0.0 | 0.00 | 0.13 | 0.13 | 72 | 1010.0 |
| 20260509185039 | 18 | 228 | 1.6 | 1.6 | 0.00 | 0.13 | 0.13 | 72 | 1009.9 |
| 20260509184537 | 18 | 244 | 1.6 | 3.2 | 0.00 | 0.13 | 0.13 | 71 | 1010.0 |
| 20260509184417 | 18 | 250 | 0.0 | 0.0 | 0.00 | 0.00 | 0.13 | 71 | 975.3 |
| 20260509184033 | 17 | 248 | 0.0 | 1.6 | 0.00 | 0.13 | 0.13 | 72 | 1010.0 |
| 20260509183917 | 17 | 251 | 0.0 | 0.0 | 0.00 | 0.00 | 0.13 | 72 | 975.3 |
| 20260509183529 | 17 | 252 | 0.0 | 1.6 | 0.00 | 0.13 | 0.13 | 74 | 1009.9 |
| 20260509183025 | 17 | 246 | 0.0 | 0.0 | 0.00 | 0.13 | 0.13 | 72 | 1009.8 |
| 20260509182918 | 17 | 246 | 0.0 | 0.0 | 0.00 | 0.00 | 0.13 | 72 | 975.3 |
| 20260509182521 | 17 | 233 | 0.0 | 0.0 | 0.00 | 0.13 | 0.13 | 74 | 1010.0 |
| 20260509182019 | 17 | 253 | 1.6 | 1.6 | 0.00 | 0.13 | 0.13 | 73 | 1010.0 |
| 20260509181517 | 17 | 251 | 1.6 | 1.6 | 0.00 | 0.13 | 0.13 | 77 | 1009.7 |
| 20260509181014 | 17 | 248 | 1.6 | 1.6 | 0.00 | 0.13 | 0.13 | 78 | 1010.1 |
| 20260509180509 | 16 | 248 | 0.0 | 0.0 | 0.00 | 0.13 | 0.13 | 80 | 1009.8 |
| 20260509180008 | 16 | 239 | 0.0 | 0.0 | 0.00 | 0.13 | 0.13 | 80 | 1010.1 |
| 20260509175502 | 16 | 215 | 3.2 | 4.8 | 0.00 | 0.13 | 0.13 | 77 | 1010.0 |
| 20260509174959 | 16 | 233 | 0.0 | 0.0 | 0.00 | 0.13 | 0.13 | 80 | 1010.2 |
| 20260509174456 | 16 | 218 | 3.2 | 3.2 | 0.00 | 0.13 | 0.13 | 82 | 1010.2 |
| 20260509173950 | 16 | 231 | 1.6 | 1.6 | 0.00 | 0.13 | 0.13 | 87 | 1010.2 |
| 20260509173451 | 16 | 200 | 3.2 | 3.2 | 0.00 | 0.13 | 0.13 | 87 | 1010.2 |
| 20260509172948 | 15 | 236 | 1.6 | 1.6 | 0.00 | 0.13 | 0.13 | 88 | 1010.3 |
| 20260509172445 | 15 | 239 | 0.0 | 0.0 | 0.00 | 0.13 | 0.13 | 88 | 1010.2 |
| 20260509171940 | 15 | 239 | 0.0 | 0.0 | 0.00 | 0.13 | 0.13 | 90 | 1010.5 |
| 20260509171436 | 15 | 235 | 0.0 | 0.0 | 0.00 | 0.13 | 0.13 | 90 | 1010.3 |
| 20260509170933 | 15 | 234 | 0.0 | 0.0 | 0.00 | 0.13 | 0.13 | 89 | 1010.6 |
| 20260509170428 | 15 | 224 | 0.0 | 0.0 | 0.00 | 0.13 | 0.13 | 89 | 1010.6 |
| 20260509165924 | 15 | 241 | 0.0 | 0.0 | 0.00 | 0.13 | 0.13 | 89 | 1010.6 |
| 20260509165419 | 15 | 240 | 0.0 | 0.0 | 0.00 | 0.13 | 0.13 | 88 | 1010.6 |
| 20260509164914 | 15 | 240 | 0.0 | 0.0 | 0.00 | 0.13 | 0.13 | 89 | 1010.8 |
| 20260509164411 | 15 | 239 | 0.0 | 0.0 | 0.00 | 0.13 | 0.13 | 88 | 1010.6 |
| 20260509163907 | 15 | 238 | 0.0 | 0.0 | 0.00 | 0.13 | 0.13 | 87 | 1010.6 |
| 20260509163404 | 15 | 240 | 0.0 | 0.0 | 0.00 | 0.13 | 0.13 | 89 | 1010.2 |
| 20260509162903 | 15 | 253 | 0.0 | 0.0 | 0.00 | 0.13 | 0.13 | 88 | 1010.5 |
| 20260509162402 | 15 | 258 | 0.0 | 0.0 | 0.00 | 0.13 | 0.13 | 86 | 1010.2 |
| 20260509161857 | 15 | 246 | 0.0 | 0.0 | 0.00 | 0.13 | 0.13 | 88 | 1010.4 |
| 20260509161354 | 15 | 244 | 0.0 | 0.0 | 0.00 | 0.13 | 0.13 | 87 | 1010.5 |
| 20260509160850 | 15 | 242 | 0.0 | 0.0 | 0.00 | 0.13 | 0.13 | 89 | 1010.2 |
| 20260509160346 | 15 | 258 | 0.0 | 0.0 | 0.00 | 0.13 | 0.13 | 89 | 1010.5 |
| 20260509155841 | 14 | 251 | 0.0 | 0.0 | 0.00 | 0.13 | 0.13 | 93 | 1010.3 |
| 20260509155338 | 14 | 252 | 0.0 | 0.0 | 0.00 | 0.13 | 0.13 | 91 | 1010.3 |
| 20260509154834 | 15 | 257 | 0.0 | 0.0 | 0.00 | 0.13 | 0.13 | 93 | 1010.4 |
| 20260509154331 | 15 | 255 | 0.0 | 0.0 | 0.00 | 0.13 | 0.13 | 93 | 1010.5 |
| 20260509153828 | 14 | 248 | 0.0 | 0.0 | 0.00 | 0.13 | 0.13 | 92 | 1010.5 |
| 20260509153324 | 13 | 253 | 0.0 | 0.0 | 0.00 | 0.13 | 0.13 | 92 | 1010.5 |
| 20260509152821 | 14 | 246 | 0.0 | 0.0 | 0.00 | 0.13 | 0.13 | 93 | 1010.6 |
| 20260509152317 | 13 | 256 | 0.0 | 1.6 | 0.00 | 0.13 | 0.13 | 93 | 1010.6 |
| 20260509151815 | 13 | 251 | 0.0 | 0.0 | 0.00 | 0.13 | 0.13 | 94 | 1010.4 |
| 20260509151310 | 13 | 250 | 0.0 | 0.0 | 0.00 | 0.13 | 0.13 | 94 | 1010.8 |
| 20260509150809 | 13 | 240 | 0.0 | 0.0 | 0.00 | 0.13 | 0.13 | 94 | 1010.6 |
| 20260509150307 | 13 | 269 | 1.6 | 1.6 | 0.00 | 0.13 | 0.13 | 97 | 1010.8 |
| 20260509145804 | 13 | 247 | 0.0 | 0.0 | 0.00 | 0.13 | 0.13 | 96 | 1010.8 |
| 20260509145306 | 13 | 247 | 0.0 | 0.0 | 0.00 | 0.13 | 0.13 | 97 | 1010.8 |
| 20260509144800 | 13 | 240 | 0.0 | 0.0 | 0.00 | 0.13 | 0.13 | 99 | 1010.9 |
| 20260509144257 | 13 | 255 | 0.0 | 0.0 | 0.00 | 0.13 | 0.13 | 99 | 1011.0 |
| 20260509143754 | 13 | 253 | 0.0 | 0.0 | 0.00 | 0.13 | 0.13 | 99 | 1010.8 |
| 20260509143252 | 12 | 255 | 0.0 | 0.0 | 0.00 | 0.13 | 0.13 | 99 | 1010.6 |
| 20260509143120 | 12 | 272 | 0.0 | 0.0 | 0.00 | 0.00 | 0.13 | 99 | 976.0 |
| 20260509142747 | 13 | 248 | 0.0 | 0.0 | 0.00 | 0.13 | 0.13 | 99 | 1010.7 |
| 20260509142244 | 13 | 262 | 0.0 | 0.0 | 0.00 | 0.13 | 0.13 | 99 | 1010.4 |
| 20260509141739 | 12 | 253 | 0.0 | 0.0 | 0.00 | 0.13 | 0.13 | 99 | 1010.8 |
| 20260509141237 | 12 | 253 | 0.0 | 0.0 | 0.00 | 0.13 | 0.13 | 99 | 1010.4 |
| 20260509140733 | 12 | 297 | 0.0 | 1.6 | 0.00 | 0.13 | 0.13 | 99 | 1010.5 |
| 20260509140231 | 12 | 251 | 0.0 | 0.0 | 0.00 | 0.13 | 0.13 | 99 | 1010.5 |
| 20260509135728 | 12 | 255 | 0.0 | 0.0 | 0.00 | 0.13 | 0.13 | 99 | 1010.8 |
| 20260509135226 | 12 | 243 | 0.0 | 0.0 | 0.00 | 0.13 | 0.13 | 99 | 1010.9 |
| 20260509134722 | 12 | 251 | 0.0 | 0.0 | 0.00 | 0.13 | 0.13 | 99 | 1010.8 |
| 20260509134220 | 12 | 251 | 0.0 | 0.0 | 0.18 | 0.13 | 0.13 | 99 | 1011.0 |
| 20260509133717 | 12 | 251 | 0.0 | 0.0 | 0.18 | 0.13 | 0.13 | 99 | 1011.0 |
| 20260509133214 | 12 | 260 | 0.0 | 0.0 | 0.00 | 0.10 | 0.10 | 99 | 1011.1 |
| 20260509132712 | 12 | 254 | 0.0 | 0.0 | 0.00 | 0.10 | 0.10 | 99 | 1011.1 |
| 20260509132211 | 12 | 251 | 0.0 | 0.0 | 0.00 | 0.10 | 0.10 | 99 | 1011.1 |
| 20260509131706 | 12 | 247 | 0.0 | 0.0 | 0.00 | 0.10 | 0.10 | 99 | 1011.1 |
| 20260509131203 | 12 | 243 | 0.0 | 0.0 | 0.00 | 0.10 | 0.10 | 99 | 1011.3 |
| 20260509130659 | 12 | 237 | 0.0 | 0.0 | 0.00 | 0.10 | 0.10 | 99 | 1011.0 |
| 20260509130155 | 12 | 252 | 0.0 | 0.0 | 0.00 | 0.10 | 0.10 | 99 | 1011.3 |
| 20260509125652 | 11 | 253 | 0.0 | 0.0 | 0.00 | 0.10 | 0.10 | 99 | 1011.3 |
| 20260509125149 | 11 | 274 | 0.0 | 0.0 | 0.00 | 0.10 | 0.10 | 99 | 1011.1 |
| 20260509124646 | 11 | 265 | 0.0 | 0.0 | 0.00 | 0.10 | 0.10 | 99 | 1011.1 |
| 20260509124142 | 11 | 253 | 0.0 | 0.0 | 0.00 | 0.10 | 0.10 | 99 | 1011.0 |
| 20260509123640 | 11 | 252 | 0.0 | 0.0 | 0.00 | 0.10 | 0.10 | 99 | 1011.3 |
| 20260509123137 | 11 | 252 | 0.0 | 0.0 | 0.00 | 0.10 | 0.10 | 99 | 1011.6 |
| 20260509122633 | 11 | 249 | 0.0 | 0.0 | 0.00 | 0.10 | 0.10 | 99 | 1011.3 |
| 20260509122130 | 11 | 249 | 0.0 | 0.0 | 0.13 | 0.10 | 0.10 | 99 | 1011.3 |
| 20260509121626 | 11 | 247 | 0.0 | 0.0 | 0.13 | 0.10 | 0.10 | 99 | 1011.1 |
| 20260509121124 | 11 | 250 | 0.0 | 0.0 | 0.13 | 0.10 | 0.10 | 99 | 1011.3 |
| 20260509120622 | 11 | 240 | 0.0 | 0.0 | 0.00 | 0.08 | 0.08 | 99 | 1011.1 |
| 20260509120120 | 11 | 251 | 0.0 | 0.0 | 0.18 | 0.08 | 0.08 | 99 | 1011.5 |
| 20260509115617 | 11 | 254 | 0.0 | 0.0 | 0.18 | 0.08 | 0.08 | 99 | 1011.4 |
| 20260509115115 | 11 | 264 | 0.0 | 0.0 | 0.00 | 0.05 | 0.05 | 99 | 1011.3 |
| 20260509114613 | 11 | 247 | 0.0 | 0.0 | 0.00 | 0.05 | 0.05 | 99 | 1011.5 |
| 20260509114112 | 11 | 264 | 0.0 | 0.0 | 0.00 | 0.05 | 0.05 | 99 | 1011.5 |
| 20260509113609 | 11 | 249 | 0.0 | 0.0 | 0.00 | 0.05 | 0.05 | 99 | 1011.5 |
| 20260509113107 | 11 | 251 | 0.0 | 0.0 | 0.13 | 0.05 | 0.05 | 99 | 1011.4 |
| 20260509112603 | 11 | 246 | 0.0 | 0.0 | 0.13 | 0.05 | 0.05 | 99 | 1011.5 |
| 20260509112100 | 11 | 254 | 0.0 | 0.0 | 0.00 | 0.03 | 0.03 | 99 | 1011.3 |
| 20260509111557 | 11 | 244 | 0.0 | 0.0 | 0.00 | 0.03 | 0.03 | 99 | 1011.6 |
| 20260509111054 | 11 | 247 | 0.0 | 0.0 | 0.00 | 0.03 | 0.03 | 99 | 1011.3 |
| 20260509110551 | 11 | 249 | 0.0 | 0.0 | 0.00 | 0.03 | 0.03 | 99 | 1010.8 |
| 20260509110048 | 11 | 251 | 0.0 | 0.0 | 0.00 | 0.03 | 0.03 | 99 | 1011.0 |
| 20260509105546 | 10 | 259 | 0.0 | 0.0 | 0.00 | 0.03 | 0.03 | 99 | 1010.8 |
| 20260509105044 | 10 | 252 | 0.0 | 0.0 | 0.00 | 0.03 | 0.03 | 99 | 1011.0 |
| 20260509104540 | 10 | 244 | 0.0 | 0.0 | 0.00 | 0.03 | 0.03 | 99 | 1011.1 |
| 20260509104037 | 10 | 265 | 0.0 | 0.0 | 0.00 | 0.03 | 0.03 | 99 | 1010.5 |
| 20260509103535 | 11 | 248 | 0.0 | 0.0 | 0.00 | 0.03 | 0.03 | 99 | 1010.8 |
| 20260509103033 | 11 | 292 | 0.0 | 0.0 | 0.00 | 0.03 | 0.03 | 99 | 1010.8 |
| 20260509102530 | 11 | 249 | 0.0 | 0.0 | 0.00 | 0.03 | 0.03 | 99 | 1010.8 |
| 20260509102027 | 11 | 249 | 0.0 | 0.0 | 0.00 | 0.03 | 0.03 | 99 | 1010.8 |
| 20260509101523 | 11 | 250 | 0.0 | 0.0 | 0.00 | 0.03 | 0.03 | 99 | 1010.8 |
| 20260509101020 | 11 | 251 | 0.0 | 1.6 | 0.00 | 0.03 | 0.03 | 99 | 1010.6 |
| 20260509100517 | 11 | 249 | 0.0 | 0.0 | 0.00 | 0.03 | 0.03 | 99 | 1010.7 |
| 20260509100015 | 11 | 249 | 0.0 | 0.0 | 0.00 | 0.03 | 0.03 | 99 | 1011.0 |
| 20260509095511 | 11 | 261 | 0.0 | 0.0 | 0.00 | 0.03 | 0.03 | 98 | 1011.0 |
| 20260509095009 | 11 | 260 | 0.0 | 0.0 | 0.00 | 0.03 | 0.03 | 98 | 1010.9 |
| 20260509094504 | 11 | 248 | 0.0 | 0.0 | 0.00 | 0.03 | 0.03 | 97 | 1010.9 |
| 20260509094002 | 11 | 247 | 0.0 | 0.0 | 0.00 | 0.03 | 0.03 | 96 | 1010.9 |
| 20260509093500 | 11 | 242 | 0.0 | 0.0 | 0.00 | 0.03 | 0.03 | 95 | 1011.1 |
| 20260509092957 | 11 | 242 | 0.0 | 0.0 | 0.00 | 0.03 | 0.03 | 94 | 1011.1 |
| 20260509092455 | 11 | 256 | 0.0 | 0.0 | 0.00 | 0.03 | 0.03 | 93 | 1011.1 |
| 20260509091953 | 12 | 247 | 0.0 | 0.0 | 0.18 | 0.03 | 0.03 | 92 | 1011.0 |
| 20260509091450 | 12 | 244 | 0.0 | 0.0 | 0.18 | 0.03 | 0.03 | 90 | 1011.3 |
| 20260509090947 | 12 | 246 | 0.0 | 0.0 | 0.00 | 0.00 | 0.00 | 88 | 1011.3 |
| 20260509090444 | 12 | 252 | 0.0 | 0.0 | 0.00 | 0.00 | 0.00 | 87 | 1011.5 |
| 20260509085942 | 12 | 254 | 0.0 | 0.0 | 0.00 | 0.00 | 0.00 | 83 | 1011.5 |
| 20260509085439 | 12 | 263 | 0.0 | 1.6 | 0.00 | 0.00 | 0.00 | 84 | 1011.4 |
| 20260509084935 | 12 | 244 | 0.0 | 0.0 | 0.00 | 0.00 | 0.00 | 83 | 1011.5 |
| 20260509084432 | 13 | 255 | 1.6 | 1.6 | 0.00 | 0.00 | 0.00 | 81 | 1011.5 |
| 20260509083929 | 13 | 248 | 0.0 | 0.0 | 0.00 | 0.00 | 0.00 | 80 | 1011.4 |
| 20260509083426 | 13 | 245 | 1.6 | 1.6 | 0.00 | 0.00 | 0.00 | 76 | 1011.7 |
| 20260509082923 | 13 | 242 | 1.6 | 1.6 | 0.00 | 0.00 | 0.00 | 74 | 1011.3 |
| 20260509082421 | 13 | 235 | 1.6 | 1.6 | 0.00 | 0.00 | 0.00 | 74 | 1011.5 |
| 20260509081917 | 13 | 248 | 1.6 | 3.2 | 0.00 | 0.00 | 0.00 | 75 | 1011.3 |
| 20260509081415 | 14 | 249 | 1.6 | 1.6 | 0.00 | 0.00 | 0.00 | 73 | 1011.3 |
| 20260509080912 | 14 | 233 | 3.2 | 3.2 | 0.00 | 0.00 | 0.00 | 71 | 1011.5 |
| 20260509080410 | 14 | 208 | 1.6 | 3.2 | 0.00 | 0.00 | 0.00 | 70 | 1011.5 |
| 20260509075908 | 14 | 257 | 3.2 | 4.8 | 0.00 | 0.00 | 0.00 | 68 | 1011.4 |
| 20260509075404 | 15 | 253 | 4.8 | 4.8 | 0.00 | 0.00 | 0.00 | 68 | 1011.6 |
| 20260509074902 | 15 | 249 | 3.2 | 8.0 | 0.00 | 0.00 | 0.00 | 69 | 1011.4 |
| 20260509074359 | 13 | 209 | 4.8 | 4.8 | 0.00 | 0.00 | 0.00 | 70 | 1010.9 |
| 20260509073855 | 12 | 226 | 0.0 | 0.0 | 0.00 | 0.00 | 0.00 | 83 | 1011.3 |
| 20260509073352 | 12 | 246 | 0.0 | 0.0 | 0.00 | 0.00 | 0.00 | 81 | 1011.0 |
| 20260509072849 | 13 | 248 | 0.0 | 0.0 | 0.00 | 0.00 | 0.00 | 82 | 1010.8 |
| 20260509072345 | 13 | 206 | 4.8 | 8.0 | 0.00 | 0.00 | 0.00 | 73 | 1010.7 |